Overview Statistics Trail Chart Weather Telemetry Raw packets
 

This is the latest recevied weather packets stored in our database for station/object OK2ZAW-21. If no packets are shown the sender has not sent any weather packets the latest 10 day(s).

<< 9 10 11 12 13 14 15 >>
Time Temp. Humidity Pressure Rain* Wind** Luminosity Snow
1788637542 14.44° C 99% 1025.1 hPa - - 419 W/m² -
1788637231 14.44° C 99% 1025 hPa - - 419 W/m² -
1788636921 14.44° C 98% 1025 hPa - - 419 W/m² -
1788636610 14.44° C 97% 1024.9 hPa - - 419 W/m² -
1788636299 14.44° C 96% 1025 hPa - - 419 W/m² -
1788635989 14.44° C 96% 1024.9 hPa - - 419 W/m² -
1788635678 14.44° C 96% 1024.9 hPa - - 419 W/m² -
1788635368 14.44° C 97% 1025 hPa - - 419 W/m² -
1788635057 14.44° C 96% 1024.9 hPa - - 419 W/m² -
1788634747 14.44° C 97% 1024.6 hPa - - 419 W/m² -
1788634436 14.44° C 97% 1024.6 hPa - - 420 W/m² -
1788634125 15° C 96% 1024.5 hPa - - 419 W/m² -
1788633815 15° C 95% 1024.4 hPa - - 419 W/m² -
1788633504 15° C 95% 1024.3 hPa - - 420 W/m² -
1788633193 15° C 95% 1024.1 hPa - - 420 W/m² -
1788632883 15.56° C 96% 1024.1 hPa - - 420 W/m² -
1788632572 15.56° C 10% - - - - -
1788632261 15.56° C 10% - - - - -
1788631951 16.11° C 98% 1023.9 hPa - - 420 W/m² -
1788631640 16.11° C 97% 1023.8 hPa - - 420 W/m² -
1788631329 16.11° C 94% 1023.7 hPa - - 420 W/m² -
1788631019 16.67° C 92% 1023.6 hPa - - 420 W/m² -
1788630708 16.67° C 90% 1023.4 hPa - - 420 W/m² -
1788630397 16.67° C 88% 1023.4 hPa - - 420 W/m² -
1788630086 16.67° C 86% 1023.2 hPa - - 420 W/m² -

* Rain since midnight (hover to see other rain measurements)
** Current wind speed in m/s (hover to see current wind gust speed)